Regional Weather Roundup
Issued by NWS Midland/Odessa, TX

Home | Current Version | Previous Version | Text Only | Print | Product List | Glossary On
Versions: 1 2 3 4 5 6 7 8 9 10 11 12 13 14 15 16 17 18 19 20 21 22 23 24 25 26 27 28 29 30 31 32 33 34 35 36 37 38 39 40 41 42 43 44 45 46 47 48 49 50
759
ASUS44 KMAF 052210
RWRMAF
MIDLAND AREA WEATHER ROUNDUP
NATIONAL WEATHER SERVICE MIDLAND TX
400 PM CST FRI FEB 05 2016

...IN SOUTHWEST TEXAS AND SOUTHEAST NEW MEXICO...

CITY           SKY/WX    TMP DP  RH WIND       PRES   REMARKS
ALPINE         SUNNY     54   6  14 NE12G22   30.28R
ANDREWS        FAIR      54  16  22 N18G24    30.24R
ARTESIA        SUNNY     54   7  15 N23G31    30.28R
BIG SPRING     MOSUNNY   55  18  23 W20       30.24R
CARLSBAD       SUNNY     53  11  18 N22       30.27R
DRYDEN           N/A     61  22  22 S9        30.18F
FORT STOCKTON  SUNNY     56  12  17 N18       30.24R
GUAD PASS      SUNNY     50   3  14 W10G22    30.26R
HOBBS          MOSUNNY   48  12  23 NW25G32   30.26R
MARFA          SUNNY     55   2  11 NW20G26   30.24R
MIDLAND AIRPK  SUNNY     56  14  18 NW13G21   30.24R
MIDLAND INTL   SUNNY     56  14  19 NW18G28   30.23R
ODESSA         SUNNY     56  14  19 NW16G25   30.24R
PECOS          SUNNY     57  14  19 N20G25    30.26R
PRESIDIO       FAIR      64   6  10 W15G24    30.20F
SEMINOLE       SUNNY     51  14  23 N20       30.26R
SNYDER           N/A     54  16  22 W18G24    30.21R
WINK           SUNNY     57  14  18 N15G23    30.24R
$$
...OTHER STATIONS IN TEXAS...

CITY           SKY/WX    TMP DP  RH WIND       PRES   REMARKS
ABILENE        SUNNY     57  23  26 SW16      30.19S
AMARILLO       SUNNY     42  17  36 N26G36    30.23R WCI  32
AUSTIN         MOSUNNY   60  26  27 S12G20    30.28F
BROWNSVILLE    CLOUDY    64  47  53 SE13G21   30.24F
CORPUS CHRISTI CLOUDY    61  45  55 SE9       30.28S
DALLAS FTW     MOSUNNY   58  23  26 SE15      30.28F
DEL RIO        SUNNY     63  29  27 SE21G26   30.20F
EL PASO        SUNNY     54   6  14 N20       30.31R
HOUSTON INT    MOSUNNY   57  26  30 S9G16     30.35F
LUBBOCK        MOSUNNY   50  12  21 NW24G31   30.20R
SAN ANGELO     SUNNY     60  24  25 S15G25    30.20S
SAN ANTONIO    MOSUNNY   62  32  32 S14G23    30.26F
WACO           SUNNY     57  22  25 S14       30.29F
WICHITA FALLS  NOT AVBL
$$
...OTHER LOCATIONS IN NEW MEXICO...

CITY           SKY/WX    TMP DP  RH WIND       PRES   REMARKS
ALAMAGORDO     SUNNY     50   3  14 NW24G30   30.30F
ALBUQUERQUE    SUNNY     42   5  21 NW15      30.36S WCI  34
CANNON AFB     PTSUNNY   43  18  36 N21G29    30.26R WCI  34
CLOVIS         MOSUNNY   45  21  39 N24G31    30.27R WCI  36
HOLLOMAN AFB   SUNNY     50   4  15 NW21G29   30.30S
ROSWELL        MOSUNNY   53   4  13 N21G26    30.28R
RUIDOSO          N/A     36   0  21 N21G26    30.31R WCI  24
SANTA FE       SUNNY     36   6  28 N12G20    30.31F WCI  28
TRUTH OR CONSE SUNNY     50  -6   9 N23G29    30.33S
TUCUMCARI      PTSUNNY   44  18  35 N22G30    30.28R WCI  35
$$




USA.gov is the U.S. government's official web portal to all federal, state and local government web resources and services.